Regional Weather Roundup
Issued by NWS

Home | Current Version | Previous Version | Graphics & Text | Print | Product List | Glossary On
Versions: 1 2 3 4 5 6 7 8 9 10 11 12 13 14 15 16 17 18 19 20 21 22 23 24 25 26 27 28 29 30 31 32 33 34 35 36 37 38 39 40 41 42 43 44 45 46 47 48 49 50
000
ASUS43 KFSD 290110
RWRSD

WEATHER ROUNDUP FOR SOUTH DAKOTA
NATIONAL WEATHER SERVICE SIOUX FALLS SD
700 PM CST WED JAN 28 2015

NOTE: "FAIR" INDICATES FEW OR NO CLOUDS BELOW 12,000 FEET WITH NO
SIGNIFICANT WEATHER AND/OR OBSTRUCTIONS TO VISIBILITY.


SDZ001>005-009-010-012>017-290200-
NORTHWEST AND NORTH CENTRAL SOUTH DAKOTA

CITY           SKY/WX    TMP DP  RH WIND       PRES   REMARKS
BUFFALO          N/A     35  29  78 NW28G39   30.11R WCI  22
FAITH            N/A     34  28  79 NW32G40   30.09R WCI  20
MOBRIDGE       CLOUDY    35  29  78 N23G30    30.02R WCI  23
$$

SDZ012>016-024>037-041>051-057-063-072>074-290200-
SOUTHWEST AND SOUTH CENTRAL SOUTH DAKOTA

CITY           SKY/WX    TMP DP  RH WIND       PRES   REMARKS
RAPID CTY ARPT PTCLDY    37  30  75 N26G36    30.13R
PIERRE         CLOUDY    36  29  75 N20G37    30.02R
CUSTER         PTCLDY    38  24  57 NW9G28    30.13R
ELLSWORTH AFB  PTCLDY    37  31  78 N36G43    30.12R
PHILIP         CLOUDY    38  30  73 NW31G40   30.10R
PINE RIDGE     MOCLDY    46  28  49 N23G31    30.09R
WINNER         FAIR      47  33  58 NW25G32   29.97R
$$

SDZ004>011-016>023-039-040-290200-
NORTHEAST SOUTH DAKOTA

CITY           SKY/WX    TMP DP  RH WIND       PRES   REMARKS
ABERDEEN       CLOUDY    35  30  82 N23G39    29.96R WCI  23
WATERTOWN      CLOUDY    37  33  85 NW21G29   29.82R
SISSETON         N/A     34  33  96 N22G35    29.86  WCI  22
$$

SDZ017-020-022-023-036>040-048>070-290200-
SOUTHEAST SOUTH DAKOTA

CITY           SKY/WX    TMP DP  RH WIND       PRES   REMARKS
SIOUX FALLS    CLOUDY    36  33  89 N6        29.78R
HURON          CLOUDY    37  33  85 N35G47    29.90R
CHAMBERLAIN    CLOUDY    41  34  76 NW28      29.96R
MITCHELL       CLOUDY    44  37  76 NW24G41   29.86R
YANKTON        PTCLDY    41  36  81 NW12      29.82R
$$

ABBREVIATIONS USED IN REMARKS
   TC - TEMPERATURE IN CELSIUS
  WCI - WIND CHILL INDEX
   HX - HEAT INDEX
  VSB - VISIBILITY




USA.gov is the U.S. government's official web portal to all federal, state and local government web resources and services.